Location: Unspecified
(49.2170°N, 0.0000°E)
Time: 03:02:26
(UTC+00:00)

Transit 2A - Pass Details

Date: 24 June 2019
Orbit: 595 x 964 km, 66.7° (Epoch: 22 July)

Event Time Altitude Azimuth Distance (km) Brightness Sun altitude
Rises 04:31:03 0° 306° (NW) 3,610 9.3 3.9°
Reaches altitude 10° 04:35:03 10° 330° (NNW) 2,613 8.8 4.5°
Maximum altitude 04:38:13 14° 2° (N) 2,260 9.0 4.9°
Drops below altitude 10° 04:41:17 10° 34° (NE) 2,499 10.0 5.4°
Sets 04:44:58 0° 59° (ENE) 3,350 12.2 5.9°
